Overview Statistics Trail Chart Weather Telemetry Raw packets
 

This is the latest recevied weather packets stored in our database for station/object KB1RMA-4. If no packets are shown the sender has not sent any weather packets the latest 10 day(s).

<< 37 38 39 40 41 42 43 >>
Time Temp. Humidity Pressure Rain* Wind** Luminosity Snow
1788379183 20.56° C 79% 1022.3 hPa 0 mm - 203 W/m² -
1788378878 20.56° C 79% 1022.2 hPa 0 mm - 210 W/m² -
1788378577 20.56° C 79% 1022.3 hPa 0 mm - 223 W/m² -
1788378277 20.56° C 79% 1022.3 hPa 0 mm - 253 W/m² -
1788377972 21.11° C 78% 1022.6 hPa 0 mm - 272 W/m² -
1788377668 20.56° C 78% 1022.4 hPa 0 mm - 273 W/m² -
1788377366 21.11° C 77% 1022.4 hPa 0 mm - 274 W/m² -
1788377065 21.67° C 76% 1022.2 hPa 0 mm - 304 W/m² -
1788376764 21.11° C 77% 1022.5 hPa 0 mm - 401 W/m² -
1788376460 21.11° C 77% 1022.4 hPa 0 mm - 417 W/m² -
1788376155 21.11° C 77% 1022.2 hPa 0 mm - 360 W/m² -
1788375850 21.11° C 77% 1022.2 hPa 0 mm - 377 W/m² -
1788375546 21.11° C 77% 1022.3 hPa 0 mm - 382 W/m² -
1788375241 21.11° C 78% 1022.3 hPa 0 mm - 350 W/m² -
1788374937 21.11° C 76% 1022.3 hPa 0 mm - 363 W/m² -
1788374632 21.11° C 76% 1022.2 hPa 0 mm - 416 W/m² -
1788374327 21.11° C 77% 1022.2 hPa 0 mm - 469 W/m² -
1788374024 20.56° C 78% 1022.2 hPa 0 mm - 386 W/m² -
1788373720 20.56° C 78% 1022.4 hPa 0 mm - 332 W/m² -
1788373416 20.56° C 78% 1022.4 hPa 0 mm - 337 W/m² -
1788373112 20.56° C 78% 1022.4 hPa 0 mm - 311 W/m² -
1788372808 20° C 78% 1022.4 hPa 0 mm - 291 W/m² -
1788372507 20° C 79% 1022.5 hPa 0 mm - 269 W/m² -
1788372203 20° C 79% 1022.5 hPa 0 mm - 242 W/m² -
1788371898 20° C 78% 1022.4 hPa 0 mm - 248 W/m² -

* Rain latest hour (hover to see other rain measurements)
** Current wind speed in m/s (hover to see current wind gust speed)